Clarksville, TN

9:46 AM CST on February 24, 2017 (GMT -0600)
Outlaw

Weather History for KCKV - August, 2012

Change the Weather History Date:

Monday, August 6, 2012

  Actual Average Record
Temperature  
Mean Temperature 81 °F 78 °F  
Max Temperature 91 °F 90 °F 100 °F (1955)
Min Temperature 70 °F 66 °F 54 °F (1948)
Degree Days  
Heating Degree Days 0 0  
Month to date heating degree days 0 0  
Since 1 June heating degree days 3  
Since 1 July heating degree days 0 0  
Cooling Degree Days 16 13  
Month to date cooling degree days 108 78  
Year to date cooling degree days 921  
Since 1 June cooling degree days 772  
Growing Degree Days 30 (Base 50)    
Moisture  
Dew Point 70 °F    
Average Humidity 74    
Maximum Humidity 100    
Minimum Humidity 47    
Precipitation  
Precipitation 0.00 in 0.10 in 1.50 in (1971)
Month to date precipitation 0.34 0.63  
Year to date precipitation 30.65  
Sea Level Pressure  
Sea Level Pressure 30.07 in    
Wind  
Wind Speed 2 mph (NE)    
Max Wind Speed 8 mph    
Max Gust Speed 10 mph    
Visibility 6 miles    
Events Fog    
T = Trace of Precipitation, MM = Missing Value Source: NWS Daily Summary

Daily Weather History Graph

Daily Weather History Graph

Search for Another Location

Airport or City:

Trip Planner

Search our weather history database for the weather conditions in past years. The results will help you decide how hot, cold, wet, or windy it might be!

Date:

Astronomy

Aug. 06, 2012 Rise Set
Actual Time 6:00 AM CDT 7:50 PM CDT
Civil Twilight 5:32 AM CDT 8:18 PM CDT
Nautical Twilight 4:57 AM CDT 8:52 PM CDT
Astronomical Twilight 4:21 AM CDT 9:28 PM CDT
Moon 10:09 PM CDT (8/6) 10:38 AM CDT (8/6)
Length of Visible Light 14h 46m
Length of Day
13h 50m
Waning Gibbous, 78% of the Moon is Illuminated
Aug 6
Waning Gibbous
Aug 9
Last Quarter
Aug 17
New
Aug 24
First Quarter
Aug 31
Full

Hourly Weather History & Observations

Time (CDT) Temp. Heat Index Dew Point Humidity Pressure Visibility Wind Dir Wind Speed Gust Speed Precip Events Conditions
12:52 AM 72.0 °F - 70.0 °F 93% 30.08 in 4.0 mi Calm Calm - N/A   Clear
1:28 AM 71.6 °F - 69.8 °F 94% 30.09 in 1.8 mi Calm Calm - N/A   Clear
1:48 AM 71.6 °F - 69.8 °F 94% 30.09 in 3.0 mi ENE 3.5 mph - N/A   Clear
1:52 AM 71.1 °F - 69.1 °F 93% 30.08 in 4.0 mi Calm Calm - N/A   Clear
2:52 AM 71.1 °F - 70.0 °F 96% 30.07 in 2.5 mi Calm Calm - N/A   Clear
3:00 AM 71.6 °F - 69.8 °F 94% 30.09 in 1.5 mi Calm Calm - N/A   Clear
3:23 AM 71.6 °F - 69.8 °F 94% 30.09 in 3.0 mi Calm Calm - N/A   Clear
3:32 AM 69.8 °F - 69.8 °F 100% 30.09 in 1.5 mi Calm Calm - N/A   Clear
3:40 AM 69.8 °F - 69.8 °F 100% 30.09 in 0.8 mi Calm Calm - N/A   Clear
3:44 AM 69.8 °F - 69.8 °F 100% 30.09 in 2.5 mi Calm Calm - N/A   Clear
3:52 AM 71.1 °F - 69.1 °F 93% 30.07 in 2.5 mi Calm Calm - N/A   Clear
4:03 AM 69.8 °F - 69.8 °F 100% 30.09 in 1.5 mi Calm Calm - N/A   Clear
4:10 AM 71.6 °F - 69.8 °F 94% 30.09 in 1.5 mi Calm Calm - N/A   Partly Cloudy
4:42 AM 71.6 °F - 69.8 °F 94% 30.09 in 3.0 mi Calm Calm - N/A   Clear
4:52 AM 71.1 °F - 70.0 °F 96% 30.07 in 4.0 mi Calm Calm - N/A   Clear
5:29 AM 69.8 °F - 69.8 °F 100% 30.09 in 1.8 mi Calm Calm - N/A   Clear
5:47 AM 69.8 °F - 69.8 °F 100% 30.10 in 0.5 mi Calm Calm - N/A Fog Fog
5:52 AM 70.0 °F - 69.1 °F 97% 30.09 in 1.0 mi Calm Calm - N/A   Clear
5:59 AM 69.8 °F - 69.8 °F 100% 30.10 in 3.0 mi Calm Calm - N/A   Partly Cloudy
6:16 AM 71.6 °F - 69.8 °F 94% 30.10 in 3.0 mi Calm Calm - N/A   Mostly Cloudy
6:48 AM 71.6 °F - 69.8 °F 94% 30.11 in 4.0 mi Calm Calm - N/A   Mostly Cloudy
6:52 AM 72.0 °F - 70.0 °F 93% 30.09 in 4.0 mi Calm Calm - N/A   Overcast
7:52 AM 75.0 °F - 72.0 °F 90% 30.10 in 7.0 mi Calm Calm - N/A   Mostly Cloudy
7:59 AM 75.2 °F - 71.6 °F 89% 30.11 in 7.0 mi Calm Calm - N/A   Overcast
8:52 AM 78.1 °F - 72.0 °F 81% 30.10 in 10.0 mi Calm Calm - N/A   Partly Cloudy
9:48 AM 78.8 °F - 73.4 °F 83% 30.12 in 10.0 mi Variable 3.5 mph - N/A   Mostly Cloudy
9:52 AM 78.1 °F - 73.0 °F 84% 30.11 in 10.0 mi Calm Calm - N/A   Mostly Cloudy
10:35 AM 80.6 °F 85.4 °F 73.4 °F 79% 30.12 in 10.0 mi NE 3.5 mph - N/A   Scattered Clouds
10:52 AM 82.0 °F 88.6 °F 75.0 °F 79% 30.10 in 10.0 mi Calm Calm - N/A   Clear
11:52 AM 84.9 °F 92.1 °F 73.9 °F 69% 30.08 in 9.0 mi NNE 4.6 mph - N/A   Partly Cloudy
12:52 PM 88.0 °F 94.7 °F 72.0 °F 59% 30.07 in 10.0 mi Calm Calm - N/A   Clear
1:52 PM 89.1 °F 95.0 °F 71.1 °F 55% 30.05 in 10.0 mi NE 5.8 mph - N/A   Partly Cloudy
2:52 PM 90.0 °F 93.6 °F 68.0 °F 48% 30.02 in 10.0 mi Variable 6.9 mph - N/A   Clear
3:52 PM 90.0 °F 94.5 °F 69.1 °F 50% 29.99 in 10.0 mi Variable 3.5 mph - N/A   Clear
4:52 PM 90.0 °F 92.8 °F 66.9 °F 46% 29.98 in 10.0 mi NE 3.5 mph - N/A   Clear
5:52 PM 87.1 °F 90.6 °F 68.0 °F 53% 29.97 in 10.0 mi East 5.8 mph - N/A   Clear
6:52 PM 84.0 °F 87.8 °F 69.1 °F 61% 29.98 in 10.0 mi NE 5.8 mph - N/A   Clear
7:52 PM 81.0 °F 84.4 °F 70.0 °F 69% 29.99 in 10.0 mi Calm Calm - N/A   Clear
8:52 PM 79.0 °F - 71.1 °F 77% 29.99 in 10.0 mi Calm Calm - N/A   Partly Cloudy
9:52 PM 79.0 °F - 70.0 °F 74% 30.00 in 10.0 mi Calm Calm - N/A   Clear
10:52 PM 78.1 °F - 69.1 °F 74% 30.00 in 10.0 mi Calm Calm - N/A   Clear
11:52 PM 73.9 °F - 69.1 °F 85% 29.99 in 9.0 mi North 3.5 mph - N/A   Clear